This is the latest recevied weather packets stored in our database for station/object ON7MOR-11. If no packets are shown the sender has not sent any weather packets the latest 10 day(s).
| Time | Temp. | Humidity | Pressure | Rain* | Wind** | Luminosity | Snow |
|---|---|---|---|---|---|---|---|
| 1777631274 | 20° C | 27% | 1024.7 hPa | - | - | - | - |
| 1777630374 | 20.56° C | 26% | 1024.8 hPa | - | - | - | - |
| 1777629474 | 20.56° C | 26% | 1024.9 hPa | - | - | - | - |
| 1777628574 | 20.56° C | 28% | 1025.1 hPa | - | - | - | - |
| 1777627674 | 21.11° C | 27% | 1025.2 hPa | - | - | - | - |
| 1777625873 | 21.67° C | 26% | 1025.2 hPa | - | - | - | - |
| 1777624073 | 21.67° C | 26% | 1025.4 hPa | - | - | - | - |
| 1777623173 | 21.11° C | 27% | 1025.5 hPa | - | - | - | - |
| 1777622272 | 21.11° C | 27% | 1025.5 hPa | - | - | - | - |
| 1777621376 | 21.11° C | 28% | 1025.5 hPa | - | - | - | - |
| 1777620476 | 20° C | 28% | 1025.5 hPa | - | - | - | - |
| 1777619576 | 20° C | 29% | 1025.4 hPa | - | - | - | - |
| 1777618676 | 18.33° C | 31% | 1025.5 hPa | - | - | - | - |
| 1777617776 | 16.67° C | 33% | 1025.7 hPa | - | - | - | - |
| 1777616876 | 16.67° C | 33% | 1025.7 hPa | - | - | - | - |
| 1777615976 | 17.22° C | 32% | 1025.9 hPa | - | - | - | - |
| 1777615076 | 17.22° C | 33% | 1025.8 hPa | - | - | - | - |
| 1777614175 | 16.67° C | 33% | 1025.7 hPa | - | - | - | - |
| 1777613275 | 16.67° C | 33% | 1025.7 hPa | - | - | - | - |
| 1777612375 | 16.11° C | 34% | 1025.7 hPa | - | - | - | - |
| 1777611475 | 16.11° C | 34% | 1025.6 hPa | - | - | - | - |
| 1777610575 | 16.11° C | 34% | 1025.5 hPa | - | - | - | - |
| 1777609675 | 16.11° C | 34% | 1025.5 hPa | - | - | - | - |
| 1777608775 | 16.11° C | 34% | 1025.6 hPa | - | - | - | - |
| 1777607874 | 16.11° C | 34% | 1025.6 hPa | - | - | - | - |
* Rain since midnight (hover to see other rain measurements)
** Current wind speed in m/s (hover to see current wind gust speed)